フルス彗星

P/2021 V2 ( Fuls )

English version
Home page
Updated on October 14, 2023

---------------------------------------------------------------------

・ プロフィール

発見日 2021年11月7日
発見光度 19.7等
発見者 David Carson Fuls (Mt. Lemmon)

・ 写真集

・ 軌道要素

Epoch 2023 Feb. 25.0 TT = JDT 2460000.5
T 2023 Jan. 21.40216 TT                                 Rudenko
q   3.4966127            (2000.0)            P               Q
n   0.03615394     Peri.  259.82803     -0.65153425     -0.73843552
a   9.0579988      Node   232.28271     +0.75316658     -0.60221795
e   0.6139751      Incl.   12.69413     +0.09079218     -0.30339170
P  27.3
>From 216 observations 2021 Aug. 7-2022 Dec. 31, mean residual 0".5.

・ 光度変化

        m1 = 10.0 + 5 logΔ + 10.0 log r(t + 150)

---------------------------------------------------------------------

軌道要素はM.P.E.C. 2022-Y232に掲載されたものです。
光度グラフはComet for Windowsで作成したものです。

---------------------------------------------------------------------

Copyright(C) Seiichi Yoshida (comet@aerith.net). All rights reserved.